Time,TemperatureF,DewpointF,PressureIn,WindDirection,WindDirectionDegrees,WindSpeedMPH,WindSpeedGustMPH,Humidity,HourlyPrecipIn,Conditions,Clouds,dailyrainin,SoftwareType,DateUTC
2015-05-27 00:09:00,72.0,39.0,29.91,West,270,0.0,1.3,30,0.00,,,0.00,WUHU216HW,2015-05-27 07:09:00,
2015-05-27 00:19:00,71.6,38.7,29.91,West,270,0.0,0.2,30,0.00,,,0.00,WUHU216HW,2015-05-27 07:19:00,
2015-05-27 00:29:00,71.3,39.9,29.90,WNW,293,0.0,0.0,32,0.00,,,0.00,WUHU216HW,2015-05-27 07:29:00,
2015-05-27 00:39:00,70.9,39.5,29.90,NE,45,0.0,0.7,32,0.00,,,0.00,WUHU216HW,2015-05-27 07:39:00,
2015-05-27 00:49:00,70.6,39.3,29.91,ENE,68,2.7,2.7,32,0.00,,,0.00,WUHU216HW,2015-05-27 07:49:00,
2015-05-27 00:59:00,70.0,39.4,29.91,ENE,68,2.5,2.5,33,0.00,,,0.00,WUHU216HW,2015-05-27 07:59:00,
2015-05-27 01:09:00,69.1,39.4,29.90,ENE,68,2.5,3.4,34,0.00,,,0.00,WUHU216HW,2015-05-27 08:09:00,
2015-05-27 01:20:00,68.8,39.8,29.91,NE,45,1.1,2.9,35,0.00,,,0.00,WUHU216HW,2015-05-27 08:20:00,
2015-05-27 01:30:00,68.8,39.8,29.91,NE,45,0.9,2.0,35,0.00,,,0.00,WUHU216HW,2015-05-27 08:30:00,
2015-05-27 01:40:00,68.8,39.8,29.91,NE,45,1.1,1.3,35,0.00,,,0.00,WUHU216HW,2015-05-27 08:40:00,
2015-05-27 01:50:00,68.8,39.8,29.90,NE,45,1.1,1.8,35,0.00,,,0.00,WUHU216HW,2015-05-27 08:50:00,
2015-05-27 02:00:00,68.6,39.6,29.90,ENE,68,1.8,1.8,35,0.00,,,0.00,WUHU216HW,2015-05-27 09:00:00,
2015-05-27 02:10:00,68.4,39.5,29.90,ENE,68,1.6,1.8,35,0.00,,,0.00,WUHU216HW,2015-05-27 09:10:00,
2015-05-27 02:20:00,68.0,39.2,29.90,NE,45,0.9,1.8,35,0.00,,,0.00,WUHU216HW,2015-05-27 09:20:00,
2015-05-27 02:30:00,68.0,39.2,29.90,NE,45,1.1,1.3,35,0.00,,,0.00,WUHU216HW,2015-05-27 09:30:00,
2015-05-27 02:40:00,68.0,39.2,29.90,NE,45,1.1,1.8,35,0.00,,,0.00,WUHU216HW,2015-05-27 09:40:00,
2015-05-27 02:50:00,67.9,39.0,29.90,NE,45,1.1,1.8,35,0.00,,,0.00,WUHU216HW,2015-05-27 09:50:00,
2015-05-27 03:00:00,67.5,38.7,29.90,ENE,68,1.6,1.6,35,0.00,,,0.00,WUHU216HW,2015-05-27 10:00:00,
2015-05-27 03:10:00,67.1,39.2,29.90,ENE,68,2.0,2.0,36,0.00,,,0.00,WUHU216HW,2015-05-27 10:10:00,
2015-05-27 03:20:00,66.6,38.6,29.90,ENE,68,1.6,2.9,36,0.00,,,0.00,WUHU216HW,2015-05-27 10:20:00,
2015-05-27 03:30:00,66.2,38.3,29.90,ENE,68,3.8,3.8,36,0.00,,,0.00,WUHU216HW,2015-05-27 10:30:00,
2015-05-27 03:40:00,65.7,38.6,29.90,ENE,68,3.6,4.0,37,0.00,,,0.00,WUHU216HW,2015-05-27 10:40:00,
2015-05-27 03:50:00,65.3,38.3,29.90,ENE,68,3.4,3.4,37,0.00,,,0.00,WUHU216HW,2015-05-27 10:50:00,
2015-05-27 04:00:00,65.0,37.9,29.90,East,90,3.6,4.0,37,0.00,,,0.00,WUHU216HW,2015-05-27 11:00:00,
2015-05-27 04:10:00,64.6,38.4,29.90,ENE,68,3.1,4.0,38,0.00,,,0.00,WUHU216HW,2015-05-27 11:10:00,
2015-05-27 04:20:00,64.3,38.7,29.90,East,90,4.3,4.3,39,0.00,,,0.00,WUHU216HW,2015-05-27 11:20:00,
2015-05-27 04:30:00,64.1,38.5,29.91,ENE,68,3.1,4.7,39,0.00,,,0.00,WUHU216HW,2015-05-27 11:30:00,
2015-05-27 04:40:00,64.1,38.5,29.90,ENE,68,4.0,4.0,39,0.00,,,0.00,WUHU216HW,2015-05-27 11:40:00,
2015-05-27 04:50:00,64.3,38.7,29.90,ENE,68,2.2,4.0,39,0.00,,,0.00,WUHU216HW,2015-05-27 11:50:00,
2015-05-27 05:00:00,64.4,38.9,29.91,East,90,3.4,3.6,39,0.00,,,0.00,WUHU216HW,2015-05-27 12:00:00,
2015-05-27 05:10:00,64.6,39.1,29.91,NE,45,3.1,4.3,39,0.00,,,0.00,WUHU216HW,2015-05-27 12:10:00,
2015-05-27 05:20:00,64.6,39.1,29.91,ENE,68,3.1,3.4,39,0.00,,,0.00,WUHU216HW,2015-05-27 12:20:00,
2015-05-27 05:30:00,64.6,39.1,29.91,ENE,68,3.4,4.0,39,0.00,,,0.00,WUHU216HW,2015-05-27 12:30:00,
2015-05-27 05:40:00,64.8,39.3,29.91,ENE,68,1.6,3.1,39,0.00,,,0.00,WUHU216HW,2015-05-27 12:40:00,
2015-05-27 06:00:00,65.3,39.7,29.92,ENE,68,2.5,2.5,39,0.00,,,0.00,WUHU216HW,2015-05-27 13:00:00,
2015-05-27 06:10:00,65.5,40.6,29.92,ENE,68,2.7,2.7,40,0.00,,,0.00,WUHU216HW,2015-05-27 13:10:00,
2015-05-27 06:20:00,65.7,40.8,29.92,ENE,68,1.8,2.0,40,0.00,,,0.00,WUHU216HW,2015-05-27 13:20:00,
2015-05-27 06:30:00,65.9,40.9,29.92,ENE,68,1.8,2.5,40,0.00,,,0.00,WUHU216HW,2015-05-27 13:30:00,
2015-05-27 06:40:00,66.2,41.9,29.93,East,90,2.5,2.5,41,0.00,,,0.00,WUHU216HW,2015-05-27 13:40:00,
2015-05-27 06:50:00,66.6,42.1,29.93,East,90,0.0,2.0,41,0.00,,,0.00,WUHU216HW,2015-05-27 13:50:00,
2015-05-27 07:00:00,67.0,42.5,29.93,East,90,1.8,1.8,41,0.00,,,0.00,WUHU216HW,2015-05-27 14:00:00,
2015-05-27 07:10:00,67.7,43.1,29.93,ENE,68,2.0,2.7,41,0.00,,,0.00,WUHU216HW,2015-05-27 14:10:00,
2015-05-27 07:20:00,68.8,44.6,29.94,East,90,0.4,3.1,42,0.00,,,0.00,WUHU216HW,2015-05-27 14:20:00,
2015-05-27 07:30:00,70.2,44.8,29.94,East,90,3.1,3.1,40,0.00,,,0.00,WUHU216HW,2015-05-27 14:30:00,
2015-05-27 07:40:00,71.6,44.7,29.94,East,90,1.6,3.4,38,0.00,,,0.00,WUHU216HW,2015-05-27 14:40:00,
2015-05-27 07:50:00,72.9,45.0,29.94,ESE,113,0.0,3.4,37,0.00,,,0.00,WUHU216HW,2015-05-27 14:50:00,
2015-05-27 08:00:00,74.2,43.8,29.94,ESE,113,0.0,3.1,34,0.00,,,0.00,WUHU216HW,2015-05-27 15:00:00,
2015-05-27 08:10:00,74.9,43.8,29.94,SE,135,1.1,3.1,33,0.00,,,0.00,WUHU216HW,2015-05-27 15:10:00,
2015-05-27 08:20:00,75.6,44.4,29.94,SSE,158,1.1,3.4,33,0.00,,,0.00,WUHU216HW,2015-05-27 15:20:00,
2015-05-27 08:30:00,76.3,44.3,29.94,SW,225,2.2,2.2,32,0.00,,,0.00,WUHU216HW,2015-05-27 15:30:00,
2015-05-27 08:40:00,77.4,44.5,29.94,SW,225,1.6,2.2,31,0.00,,,0.00,WUHU216HW,2015-05-27 15:40:00,
2015-05-27 08:50:00,78.1,44.3,29.94,WSW,248,0.4,3.6,30,0.00,,,0.00,WUHU216HW,2015-05-27 15:50:00,
2015-05-27 09:00:00,78.8,44.8,29.94,SE,135,0.0,2.2,30,0.00,,,0.00,WUHU216HW,2015-05-27 16:00:00,
2015-05-27 09:10:00,79.6,44.5,29.94,SE,135,1.1,3.6,29,0.00,,,0.00,WUHU216HW,2015-05-27 16:10:00,
2015-05-27 09:20:00,79.9,43.8,29.94,South,180,0.0,2.2,28,0.00,,,0.00,WUHU216HW,2015-05-27 16:20:00,
2015-05-27 09:30:00,80.3,45.1,29.94,SSW,203,1.3,2.5,29,0.00,,,0.00,WUHU216HW,2015-05-27 16:30:00,
2015-05-27 09:40:00,80.1,43.8,29.94,SW,225,1.6,3.6,28,0.00,,,0.00,WUHU216HW,2015-05-27 16:40:00,
2015-05-27 09:50:00,80.3,44.0,29.94,SSE,158,1.1,2.5,28,0.00,,,0.00,WUHU216HW,2015-05-27 16:50:00,
2015-05-27 10:00:00,81.2,43.7,29.94,SE,135,1.8,5.8,27,0.00,,,0.00,WUHU216HW,2015-05-27 17:00:00,
2015-05-27 10:11:00,81.4,42.8,29.94,SSE,158,1.6,5.6,26,0.00,,,0.00,WUHU216HW,2015-05-27 17:11:00,
2015-05-27 10:21:00,81.5,43.0,29.94,SSE,158,1.8,3.8,26,0.00,,,0.00,WUHU216HW,2015-05-27 17:21:00,
2015-05-27 10:31:00,81.9,43.3,29.94,South,180,2.0,3.6,26,0.00,,,0.00,WUHU216HW,2015-05-27 17:31:00,
2015-05-27 10:41:00,81.9,43.3,29.94,SE,135,3.4,4.3,26,0.00,,,0.00,WUHU216HW,2015-05-27 17:41:00,
2015-05-27 10:51:00,82.1,43.4,29.94,SE,135,1.8,5.6,26,0.00,,,0.00,WUHU216HW,2015-05-27 17:51:00,
2015-05-27 11:01:00,82.8,44.0,29.94,SW,225,5.6,5.8,26,0.00,,,0.00,WUHU216HW,2015-05-27 18:01:00,
2015-05-27 11:11:00,83.5,43.6,29.94,SW,225,3.6,5.8,25,0.00,,,0.00,WUHU216HW,2015-05-27 18:11:00,
2015-05-27 11:21:00,83.7,43.8,29.94,WSW,248,5.6,6.0,25,0.00,,,0.00,WUHU216HW,2015-05-27 18:21:00,
2015-05-27 11:31:00,84.2,43.1,29.94,West,270,4.5,6.3,24,0.00,,,0.00,WUHU216HW,2015-05-27 18:31:00,
2015-05-27 11:41:00,85.0,43.8,29.94,NNW,338,1.8,5.4,24,0.00,,,0.00,WUHU216HW,2015-05-27 18:41:00,
2015-05-27 11:51:00,85.7,43.3,29.94,NW,315,0.9,6.3,23,0.00,,,0.00,WUHU216HW,2015-05-27 18:51:00,
2015-05-27 12:01:00,85.7,43.3,29.94,NW,315,0.7,6.0,23,0.00,,,0.00,WUHU216HW,2015-05-27 19:01:00,
2015-05-27 12:21:00,87.3,43.6,29.93,West,270,1.8,5.1,22,0.00,,,0.00,WUHU216HW,2015-05-27 19:21:00,
2015-05-27 12:31:00,88.4,43.5,29.93,West,270,0.9,3.4,21,0.00,,,0.00,WUHU216HW,2015-05-27 19:31:00,
2015-05-27 12:41:00,89.3,44.2,29.92,West,270,4.0,5.1,21,0.00,,,0.00,WUHU216HW,2015-05-27 19:41:00,
2015-05-27 12:51:00,90.0,44.7,29.92,NE,45,2.5,6.3,21,0.00,,,0.00,WUHU216HW,2015-05-27 19:51:00,
2015-05-27 13:01:00,90.4,45.0,29.91,WSW,248,0.9,4.0,21,0.00,,,0.00,WUHU216HW,2015-05-27 20:01:00,
2015-05-27 13:11:00,90.7,42.5,29.91,WNW,293,2.0,6.7,19,0.00,,,0.00,WUHU216HW,2015-05-27 20:11:00,
2015-05-27 13:21:00,90.9,42.7,29.90,East,90,4.5,5.8,19,0.00,,,0.00,WUHU216HW,2015-05-27 20:21:00,
2015-05-27 13:31:00,91.1,42.8,29.89,SSE,158,5.6,6.3,19,0.00,,,0.00,WUHU216HW,2015-05-27 20:31:00,
2015-05-27 13:41:00,90.4,42.2,29.89,South,180,4.7,9.4,19,0.00,,,0.00,WUHU216HW,2015-05-27 20:41:00,
2015-05-27 13:51:00,90.0,42.0,29.90,NW,315,1.3,5.6,19,0.00,,,0.00,WUHU216HW,2015-05-27 20:51:00,
2015-05-27 14:01:00,90.7,40.8,29.90,SSW,203,3.8,9.8,18,0.00,,,0.00,WUHU216HW,2015-05-27 21:01:00,
2015-05-27 14:11:00,91.3,41.2,29.88,WSW,248,5.6,6.9,18,0.00,,,0.00,WUHU216HW,2015-05-27 21:11:00,
2015-05-27 14:21:00,91.8,41.6,29.88,SW,225,4.0,7.4,18,0.00,,,0.00,WUHU216HW,2015-05-27 21:21:00,
2015-05-27 14:31:00,91.6,41.5,29.88,SSE,158,1.8,5.4,18,0.00,,,0.00,WUHU216HW,2015-05-27 21:31:00,
2015-05-27 14:41:00,91.6,39.7,29.88,West,270,3.1,7.4,17,0.00,,,0.00,WUHU216HW,2015-05-27 21:41:00,
2015-05-27 14:51:00,90.9,37.5,29.87,SSE,158,2.9,8.5,16,0.00,,,0.00,WUHU216HW,2015-05-27 21:51:00,
2015-05-27 15:01:00,90.7,37.3,29.87,West,270,3.6,6.9,16,0.00,,,0.00,WUHU216HW,2015-05-27 22:01:00,
2015-05-27 15:11:00,90.4,37.0,29.86,SW,225,2.5,6.7,16,0.00,,,0.00,WUHU216HW,2015-05-27 22:11:00,
2015-05-27 15:21:00,89.6,36.4,29.86,SSE,158,6.7,7.6,16,0.00,,,0.00,WUHU216HW,2015-05-27 22:21:00,
2015-05-27 15:31:00,89.5,36.3,29.85,NW,315,1.8,4.0,16,0.00,,,0.00,WUHU216HW,2015-05-27 22:31:00,
2015-05-27 15:41:00,89.6,36.4,29.86,NNW,338,1.8,6.9,16,0.00,,,0.00,WUHU216HW,2015-05-27 22:41:00,
2015-05-27 15:52:00,89.6,36.4,29.85,NNE,23,2.2,4.7,16,0.00,,,0.00,WUHU216HW,2015-05-27 22:52:00,
2015-05-27 16:02:00,89.6,36.4,29.86,West,270,5.1,5.1,16,0.00,,,0.00,WUHU216HW,2015-05-27 23:02:00,
2015-05-27 16:12:00,89.6,38.2,29.85,NNW,338,1.6,3.6,17,0.00,,,0.00,WUHU216HW,2015-05-27 23:12:00,
2015-05-27 16:22:00,89.6,38.2,29.85,WSW,248,1.8,4.9,17,0.00,,,0.00,WUHU216HW,2015-05-27 23:22:00,
2015-05-27 16:32:00,89.6,38.2,29.85,West,270,1.6,4.3,17,0.00,,,0.00,WUHU216HW,2015-05-27 23:32:00,
2015-05-27 16:42:00,89.3,37.9,29.85,West,270,4.0,6.5,17,0.00,,,0.00,WUHU216HW,2015-05-27 23:42:00,
2015-05-27 16:52:00,89.1,37.7,29.85,NW,315,4.9,4.9,17,0.00,,,0.00,WUHU216HW,2015-05-27 23:52:00,
2015-05-27 17:02:00,88.9,35.8,29.84,West,270,3.8,6.0,16,0.00,,,0.00,WUHU216HW,2015-05-28 00:02:00,
2015-05-27 17:12:00,88.6,35.6,29.85,West,270,3.6,6.0,16,0.00,,,0.00,WUHU216HW,2015-05-28 00:12:00,
2015-05-27 17:22:00,88.2,35.3,29.84,NW,315,0.9,6.9,16,0.00,,,0.00,WUHU216HW,2015-05-28 00:22:00,
2015-05-27 17:42:00,87.7,33.1,29.85,NW,315,4.0,5.1,15,0.00,,,0.00,WUHU216HW,2015-05-28 00:42:00,
2015-05-27 17:52:00,87.5,34.8,29.84,NW,315,4.9,6.5,16,0.00,,,0.00,WUHU216HW,2015-05-28 00:52:00,
2015-05-27 18:02:00,87.1,34.4,29.85,West,270,3.1,6.9,16,0.00,,,0.00,WUHU216HW,2015-05-28 01:02:00,
2015-05-27 18:12:00,86.9,34.3,29.85,NW,315,5.1,6.7,16,0.00,,,0.00,WUHU216HW,2015-05-28 01:12:00,
2015-05-27 18:22:00,86.9,34.3,29.84,North,0,1.8,6.9,16,0.00,,,0.00,WUHU216HW,2015-05-28 01:22:00,